Tracking 18032 objects as of 25-March-2017
HD Live streaming from Space Station
objects crossing your sky now

COSMOS 2209

Track COSMOS 2209 now!
COSMOS 2209 is classified as:


NORAD ID: 22112
Int'l Code: 1992-059A
Perigee: 35,745.6 km
Apogee: 35,837.4 km
Inclination: 15.0 °
Period: 1,436.0 minutes
Semi major axis: 42162 km
RCS: 5.0119 m2 (large)
Launch date: September 10, 1992
Source: Commonwealth of Independent States (former USSR) (CIS)
Launch site: TYURATAM MISSILE AND SPACE COMPLEX (TTMTR)
Your satellite tracking list
Your tracking list is empty





NASA's NSSDC Master Catalog

Two Line Element Set (TLE):
1 22112U 92059A   17083.14589477 -.00000196 +00000-0 +00000-0 0  9994
2 22112 015.0074 012.1133 0010890 231.6471 327.2299 01.00279746089849
Source of the keplerian elements: AFSPC